Regional Weather Roundup
Issued by NWS

Home | Current Version | Previous Version | Graphics & Text | Print | Product List | Glossary On
Versions: 1 2 3 4 5 6 7 8 9 10 11 12 13 14 15 16 17 18 19 20 21 22 23 24 25 26 27 28 29 30 31 32 33 34 35 36 37 38 39 40 41 42 43 44 45 46 47 48 49 50
000
ASUS43 KDMX 220707
RWRIA

WEATHER ROUNDUP FOR IOWA
NATIONAL WEATHER SERVICE DES MOINES IA
200 AM CDT TUE JUL 22 2014

NOTE: "FAIR" INDICATES FEW OR NO CLOUDS BELOW 12,000 FEET WITH NO
SIGNIFICANT WEATHER AND/OR OBSTRUCTIONS TO VISIBILITY.

* - THESE STATIONS ARE NOT NWS STATIONS...THUS NOT UNDER NWS
QUALITY CONTROL.  THEY ALSO DO NOT REPORT WEATHER SUCH
AS PRECIPITATION OR FOG.

IAZ001>003-012>014-020>022-031>034-043>046-220800-
   NORTHWEST IOWA

CITY           SKY/WX    TMP DP  RH WIND       PRES   REMARKS
CARROLL *      PTCLDY    81  73  78 SW12      29.88S HX  85
CHEROKEE *     CLEAR     77  77 100 S3        29.85S FOG
DENISON *      CLEAR     81  75  83 VRB7      29.87S HX  86
LE MARS *        N/A     75  75 100 CALM      29.86R
ORANGE CITY *  CLEAR     79  73  83 S3        29.85S FOG     HX  82
SHELDON *      CLEAR     75  75 100 S3        29.84S FOG
SIOUX CITY     PTCLDY    83  74  74 SW6       29.84R HX  89
SPENCER        CLEAR     78  75  90 SW5       29.85S HX  81
STORM LAKE *   CLEAR     77  77 100 S7        29.88S
$$

IAZ055>058-069>071-079>083-090>094-220800-
   SOUTHWEST IOWA

CITY           SKY/WX    TMP DP  RH WIND       PRES   REMARKS
ATLANTIC *     CLEAR     81  73  78 S9        29.90F HX  85
AUDUBON *      CLEAR     82  77  83 S13       29.92R HX  91
CLARINDA *     CLEAR     77  75  94 S6        29.94S
COUNCIL BLFS *   N/A     84  75  74 SW15G22   29.89S HX  92
CRESTON *      CLEAR     77  75  94 S16       29.95S
HARLAN  *      CLEAR     79  75  89 S7        29.93F HX  82
LAMONI         MOCLDY    78  74  87 S10       29.96F HX  81
RED OAK *      CLOUDY    79  75  89 S3        29.91S HX  82
SHENANDOAH *   CLEAR     81  73  78 S5        29.92S HX  85
$$

IAZ047>049-059>061-072>074-084-220800-
   CENTRAL IOWA

CITY           SKY/WX    TMP DP  RH WIND       PRES   REMARKS
AMES           MOCLDY    80  75  84 S10       29.90F HX  85
ANKENY *       CLEAR     81  75  83 S9G16     29.91S HX  86
CHARITON *     MOCLDY    79  75  89 S12       29.96S HX  82
DES MOINES     PTCLDY    82  74  76 S12       29.91F HX  88
GRINNELL*      CLEAR     75  70  83 S10       29.95F
KNOXVILLE *    PTCLDY    79  73  83 S12G18    29.93F HX  82
MARSHALLTOWN   PTCLDY    78  74  87 S14       29.91F HX  81
PELLA *        CLEAR     79  73  83 S10       29.95F HX  82
PERRY *          N/A     79  75  89 S9        29.90S HX  82
$$

IAZ004>006-015-016-023>025-035-036-220800-
   NORTH CENTRAL IOWA

CITY           SKY/WX    TMP DP  RH WIND       PRES   REMARKS
ALGONA *       CLEAR     79  75  89 S12G18    29.86S HX  82
CLARION *      CLEAR     79  75  89 S13G18    29.87F HX  82
ESTHERVILLE    CLEAR     77  75  93 S8        29.85R
FORT DODGE *   CLOUDY    81  73  78 S17       29.88S HX  85
MASON CITY     CLOUDY    79  76  90 S14       29.89F HX  83
FOREST CITY *  CLEAR     79  75  89 S10       29.87S HX  82
IOWA FALLS *     N/A     79  73  83 S15       29.90F HX  82
$$

IAZ007>011-017>019-026>030-037>042-050>054-066-220800-
   NORTHEAST IOWA

CITY           SKY/WX    TMP DP  RH WIND       PRES   REMARKS
CEDAR RAPIDS   CLEAR     75  68  78 S10       29.97S
CHARLES CITY * MOCLDY    79  73  83 S16       29.91F HX  82
DECORAH *      CLOUDY    75  70  83 S10G18    29.93S
DUBUQUE        CLEAR     72  69  90 S12       30.00S
MONTICELLO *   MOCLDY    73  70  88 S5G14     29.98F
OELWEIN *      CLOUDY    75  70  83 S14       29.96S
WATERLOO       PTCLDY    78  71  79 S14       29.91F HX  80
$$

IAZ064-065-067-068-078-220800-
   EAST CENTRAL IOWA

CITY           SKY/WX    TMP DP  RH WIND       PRES   REMARKS
DAVENPORT      CLEAR     75  67  76 S10       30.02S
IOWA CITY      CLEAR     75  69  81 SE9       29.99F
MT. PLEASANT * CLEAR     75  66  73 SE8       30.00F
MUSCATINE *    CLEAR     73  70  88 CALM      30.00F
QUAD CITIES    CLEAR     75  67  76 S12       30.01F
$$

IAZ062-063-075>077-085>089-095>099-220800-
   SOUTHEAST IOWA

CITY           SKY/WX    TMP DP  RH WIND       PRES   REMARKS
BURLINGTON     CLEAR     75  68  78 S14       30.02F
FAIRFIELD *    CLEAR     75  66  73 S10G16    29.99S
FORT MADISON * CLEAR     73  70  88 S8        30.03S
KEOKUK *       CLEAR     75  68  78 S6        30.02S
OSKALOOSA *      N/A     73  70  88 S9        29.97F
CENTERVILLE *  CLEAR     75  72  88 S7        30.00S
OTTUMWA        CLEAR     75  69  81 S9        29.97S
WASHINGTON *   CLEAR     75  68  78 S9        29.99F
$$

ABBREVIATIONS USED IN REMARKS
   TC - TEMPERATURES IN CELSIUS
  WCI - WIND CHILL INDEX
   HX - HEAT INDEX
  VSB - VISIBILITY
$$



USA.gov is the U.S. government's official web portal to all federal, state and local government web resources and services.